Stündliche Wetter Holoskiv

Heute, 22 Juni, Dienstag

Zeit Temperatur Niederschläge Wind Luftdruck Luftfeuchtigkeit
00:00 +20°C° 0 mm 2 m/S 732 mmHg 99%
01:00 +19°C° 0 mm 2 m/S 731 mmHg 100%
02:00 +18°C° 0 mm 1 m/S 732 mmHg 99%
03:00 +17°C° 0 mm 2 m/S 732 mmHg 98%
04:00 +18°C° 0 mm 1 m/S 732 mmHg 98%
05:00 +17°C° 0 mm 2 m/S 731 mmHg 98%
06:00 +17°C° 0 mm 2 m/S 732 mmHg 99%
07:00 +19°C° 0 mm 1 m/S 732 mmHg 98%
08:00 +20°C° 0 mm 2 m/S 732 mmHg 95%
09:00 +23°C° 0 mm 1 m/S 733 mmHg 93%
10:00 +24°C° 0 mm 2 m/S 733 mmHg 87%
11:00 +25°C° 0 mm 3 m/S 733 mmHg 90%
12:00 +26°C° 0 mm 3 m/S 733 mmHg 90%
13:00 +27°C° 0 mm 2 m/S 733 mmHg 82%
14:00 +27°C° 0 mm 2 m/S 733 mmHg 77%
15:00 +28°C° 0 mm 1 m/S 733 mmHg 77%
16:00 +28°C° 0 mm 2 m/S 733 mmHg 81%
17:00 +28°C° 0 mm 2 m/S 733 mmHg 83%
18:00 +27°C° 0 mm 2 m/S 732 mmHg 86%
19:00 +27°C° 0 mm 2 m/S 732 mmHg 89%
20:00 +26°C° 0 mm 2 m/S 733 mmHg 92%
21:00 +25°C° 0 mm 2 m/S 733 mmHg 91%
22:00 +24°C° 0 mm 2 m/S 733 mmHg 89%
23:00 +24°C° 0 mm 2 m/S 733 mmHg 93%

Morgen, 23 Juni, Mittwoch

Zeit Temperatur Niederschläge Wind Luftdruck Luftfeuchtigkeit
00:00 +23°C° 0 mm 1 m/S 733 mmHg 96%
01:00 +21°C° 0 mm 2 m/S 733 mmHg 98%
02:00 +21°C° 0 mm 2 m/S 733 mmHg 99%
03:00 +20°C° 0 mm 2 m/S 733 mmHg 99%
04:00 +21°C° 0 mm 1 m/S 733 mmHg 100%
05:00 +20°C° 0 mm 1 m/S 733 mmHg 100%
06:00 +20°C° 0 mm 1 m/S 733 mmHg 100%
07:00 +21°C° 0 mm 1 m/S 734 mmHg 100%
08:00 +22°C° 0 mm 1 m/S 734 mmHg 100%
09:00 +22°C° 0 mm 1 m/S 734 mmHg 100%
10:00 +23°C° 0 mm 1 m/S 735 mmHg 99%
11:00 +25°C° 0 mm 2 m/S 735 mmHg 96%
12:00 +26°C° 0 mm 2 m/S 735 mmHg 96%
13:00 +27°C° 0 mm 2 m/S 735 mmHg 91%
14:00 +28°C° 0 mm 1 m/S 735 mmHg 89%
15:00 +26°C° 0 mm 0 m/S 735 mmHg 84%
16:00 +29°C° 0 mm 1 m/S 735 mmHg 84%
17:00 +29°C° 0 mm 1 m/S 735 mmHg 85%
18:00 +28°C° 0 mm 2 m/S 735 mmHg 85%
19:00 +28°C° 0 mm 1 m/S 735 mmHg 89%
20:00 +27°C° 0 mm 1 m/S 735 mmHg 90%
21:00 +26°C° 0 mm 1 m/S 735 mmHg 89%
22:00 +26°C° 0 mm 1 m/S 735 mmHg 92%
23:00 +24°C° 0 mm 1 m/S 735 mmHg 97%

übermorgen, 24 Juni, Donnerstag

Zeit Temperatur Niederschläge Wind Luftdruck Luftfeuchtigkeit
00:00 +24°C° 0 mm 1 m/S 736 mmHg 99%
01:00 +23°C° 0 mm 1 m/S 736 mmHg 98%
02:00 +22°C° 0 mm 3 m/S 736 mmHg 97%
03:00 +21°C° 0 mm 3 m/S 735 mmHg 100%
04:00 +21°C° 0 mm 3 m/S 736 mmHg 100%
05:00 +21°C° 0 mm 3 m/S 736 mmHg 100%
06:00 +21°C° 0 mm 2 m/S 736 mmHg 100%
07:00 +21°C° 0 mm 2 m/S 736 mmHg 100%
08:00 +21°C° 0 mm 2 m/S 736 mmHg 100%
09:00 +21°C° 0 mm 2 m/S 737 mmHg 100%
10:00 +21°C° 0 mm 2 m/S 737 mmHg 99%
11:00 +21°C° 0 mm 2 m/S 737 mmHg 99%
12:00 +23°C° 0 mm 1 m/S 737 mmHg 97%
13:00 +25°C° 0 mm 1 m/S 737 mmHg 97%
14:00 +26°C° 0 mm 1 m/S 737 mmHg 95%
15:00 +26°C° 0 mm 1 m/S 736 mmHg 94%
16:00 +26°C° 0 mm 1 m/S 736 mmHg 92%
17:00 +25°C° 0 mm 0 m/S 736 mmHg 91%
18:00 +25°C° 0 mm 0 m/S 736 mmHg 90%
19:00 +27°C° 0 mm 1 m/S 736 mmHg 92%
20:00 +26°C° 0 mm 1 m/S 736 mmHg 97%
21:00 +25°C° 0 mm 1 m/S 736 mmHg 98%
22:00 +24°C° 0 mm 2 m/S 736 mmHg 100%
23:00 +24°C° 0 mm 2 m/S 736 mmHg 100%

25 Juni, Freitag

Zeit Temperatur Niederschläge Wind Luftdruck Luftfeuchtigkeit
00:00 +24°C° 0 mm 1 m/S 735 mmHg 100%
01:00 +24°C° 0 mm 1 m/S 735 mmHg 98%
02:00 +23°C° 0 mm 1 m/S 735 mmHg 99%
03:00 +23°C° 0 mm 1 m/S 734 mmHg 100%
04:00 +22°C° 0 mm 1 m/S 734 mmHg 100%
05:00 +22°C° 0 mm 1 m/S 734 mmHg 100%
06:00 +22°C° 0 mm 1 m/S 734 mmHg 100%
07:00 +22°C° 0 mm 1 m/S 735 mmHg 100%
08:00 +23°C° 0 mm 2 m/S 735 mmHg 100%
09:00 +25°C° 0 mm 1 m/S 735 mmHg 97%
10:00 +26°C° 0 mm 2 m/S 735 mmHg 96%
11:00 +27°C° 0 mm 3 m/S 735 mmHg 95%
12:00 +27°C° 0 mm 3 m/S 735 mmHg 95%
13:00 +28°C° 0 mm 4 m/S 734 mmHg 92%
14:00 +29°C° 0 mm 4 m/S 734 mmHg 90%
15:00 +29°C° 0 mm 3 m/S 733 mmHg 90%
16:00 +29°C° 0 mm 4 m/S 733 mmHg 89%
17:00 +29°C° 0 mm 4 m/S 732 mmHg 83%
18:00 +28°C° 0 mm 5 m/S 732 mmHg 87%
19:00 +27°C° 0.1 mm 5 m/S 733 mmHg 90%
20:00 +24°C° 0.5 mm 2 m/S 733 mmHg 90%
21:00 +23°C° 0 mm 2 m/S 732 mmHg 93%
22:00 +21°C° 0 mm 2 m/S 732 mmHg 95%
23:00 +21°C° 0 mm 3 m/S 732 mmHg 96%

26 Juni, Samstag

Zeit Temperatur Niederschläge Wind Luftdruck Luftfeuchtigkeit
00:00 +21°C° 0 mm 3 m/S 732 mmHg 95%
01:00 +21°C° 0 mm 2 m/S 732 mmHg 94%
02:00 +22°C° 0 mm 1 m/S 731 mmHg 87%
03:00 +22°C° 0 mm 1 m/S 731 mmHg 80%
04:00 +21°C° 0 mm 1 m/S 731 mmHg 96%
05:00 +22°C° 0 mm 1 m/S 732 mmHg 88%
06:00 +22°C° 0 mm 1 m/S 732 mmHg 90%
07:00 +21°C° 0 mm 2 m/S 732 mmHg 91%
08:00 +23°C° 0 mm 2 m/S 732 mmHg 91%
09:00 +24°C° 0 mm 3 m/S 732 mmHg 94%
10:00 +25°C° 0 mm 2 m/S 733 mmHg 93%
11:00 +23°C° 0.4 mm 4 m/S 732 mmHg 97%
12:00 +25°C° 0 mm 1 m/S 732 mmHg 92%
13:00 +26°C° 0.2 mm 1 m/S 733 mmHg 89%
14:00 +26°C° 0.1 mm 2 m/S 732 mmHg 91%
15:00 +26°C° 0 mm 3 m/S 732 mmHg 88%
16:00 +26°C° 0.1 mm 4 m/S 732 mmHg 90%
17:00 +26°C° 0.4 mm 3 m/S 732 mmHg 91%
18:00 +25°C° 0.3 mm 4 m/S 732 mmHg 91%
19:00 +22°C° 0 mm 6 m/S 732 mmHg 95%
20:00 +21°C° 0.3 mm 5 m/S 733 mmHg 93%
21:00 +20°C° 0 mm 3 m/S 733 mmHg 94%
22:00 +19°C° 0 mm 3 m/S 733 mmHg 96%
23:00 +19°C° 0 mm 2 m/S 733 mmHg 98%

27 Juni, Sonntag

Zeit Temperatur Niederschläge Wind Luftdruck Luftfeuchtigkeit
00:00 +18°C° 0 mm 2 m/S 734 mmHg 100%
01:00 +18°C° 0 mm 2 m/S 733 mmHg 100%
02:00 +18°C° 0 mm 2 m/S 733 mmHg 100%
03:00 +17°C° 0 mm 2 m/S 733 mmHg 99%
04:00 +17°C° 0 mm 2 m/S 733 mmHg 98%
05:00 +17°C° 0 mm 2 m/S 734 mmHg 96%
06:00 +17°C° 0 mm 2 m/S 734 mmHg 95%
07:00 +18°C° 0 mm 2 m/S 735 mmHg 93%
08:00 +19°C° 0 mm 3 m/S 735 mmHg 91%
09:00 +19°C° 0 mm 3 m/S 735 mmHg 90%
10:00 +20°C° 0 mm 3 m/S 736 mmHg 89%
11:00 +21°C° 0 mm 4 m/S 735 mmHg 87%
12:00 +21°C° 0 mm 4 m/S 736 mmHg 86%
13:00 +22°C° 0 mm 4 m/S 735 mmHg 85%
14:00 +22°C° 0 mm 4 m/S 735 mmHg 87%
15:00 +23°C° 0 mm 4 m/S 735 mmHg 85%
16:00 +23°C° 0 mm 4 m/S 735 mmHg 85%
17:00 +23°C° 0 mm 4 m/S 735 mmHg 84%
18:00 +23°C° 0 mm 5 m/S 735 mmHg 87%
19:00 +21°C° 0 mm 4 m/S 735 mmHg 91%
20:00 +21°C° 0 mm 3 m/S 735 mmHg 94%
21:00 +20°C° 0 mm 2 m/S 736 mmHg 96%
22:00 +19°C° 0 mm 2 m/S 736 mmHg 98%
23:00 +19°C° 0 mm 2 m/S 736 mmHg 98%
Mehr zeigen

Wir brauchen deine Erlaubnis

Meteoprog und unser Service Anbieter werden persönliche Daten aufbewahren, so wie Cookies, Geräte Bezeichnung oder ähnliche Technologien von deinem Gerät und Prozess, so wie Persönliche Daten Inhalte und Werbungen, genauso wie social Media und den Verkehr zu analysieren.

  • Aufbewahrung und/oder Zugang zu deiner Geräte Informationen.

    Cookies, Geräte Bezeichnung oder andere Informationen, können aufbewahrt oder Zugang zu deinem Gerät erhalten, für den Grund, der oben angegeben wird.

  • Personalisierte Werbung und Inhalte, Messungen, Einblick in das Publikum und Produkt Entwicklung.

    Werbungen und Inhalte können personalisiert werden, basierend auf ein Profil. Mehr Daten können besser personalisierte Werbungen und Inhalte hinzufügen. Werbung und Inhalte können gezeigt und gemessen werden. Einblicke über das Publikum, welche die Werbung gesehen haben und den Inhalt, können abgeleitet werden. So wie Daten können genutzt werden, um es zu verbessern oder die Benutzer Erfahrung zu verbessern das System und die Software.

Wenn du “Ich stimme zu” klickst, erlaubst du uns, die Cookies zu benutzen die Geräte Bezeichnung, den Web oder ähnliche Technologien zu benutzen. Deine Settings, können in deinem Gerät bei deinem Browser geändert werden.

Für den bestimmten Zweck, berechtigten Interessen beruhen darauf, mehr als auf den Inhalt. Du kannst mehr darüber in unseren Privaten und Cookie Politik lesen.